Find Starlink 36410

NORAD ID: 67337 Int'l Des: 2026-003 Owner: SPXS Country: US Constellation: starlink operational
LEOCIRCULAR

实时位置

正在加载3D地球...

关于 Starlink 36410

正在加载描述...

即将过境

Passes for default location (London). Set your location on the main map for personalized predictions.

高度历史

Loading altitude history...

两行轨道根数

1 67337U 26003D 26107.03370867 .00013251 00000-0 48995-3 0 9997
2 67337 43.0019 10.9111 0001152 273.1861 86.8859 15.27596739 14682
Epoch: Apr 17, 2026 • Age: 13 hours

当前状态

高度 486.7 km
速度 7.63 km/s
星下点 42.40°N, 33.31°E
发射日期 Jan 9, 2026
运行时间 0.2 years
类型 internet

技术详情

分类 Payload
质量 575.00 kg
干质量 530.00 kg
总质量 575.00 kg
长度 0.30 m
直径 4.10 m
跨度 29.00 m
形状 Box + pan
制造商 SPXS
平台类型 Starlink V2MO
阶段状态 In Orbit
所有者/国家 SPXS/US

Most Searched